Вернуться в каталог

STARLINK-4549

АктивенСвязьVLEO
NORAD 53433·PAYLOAD·🇺🇸 United States

Запущен Aug 10, 2022 с Cape Canaveral Space Force Station

Loading…

Ближайшие Пролёты (ближайшие 24 часа)

TLE

СвежийSource: CelesTrak SupGP

Эпоха: Sep 15, 2026, 02:23 UTC

1 53433C 22097AX  26258.09979167  .00042464  00000+0  12154-2 0  2581
2 53433  53.1582 324.8737 0001256  94.7633  35.5885 15.35366241    15

Отслеживайте STARLINK-4549 в реальном времени с AllMySat

Download on the App Store